THM YBTH-YSSY

Flight info

Callsign THM
Flight time 0h 53m
Altitude 7000
Route BTH W575 AKMIR W113 TESAT
Aircraft BE36/L-BDFGLORY/S

Departure

Time 2026-04-30 07:33
Airport Bathurst Airport (YBTH)

Arrival

Time 2026-04-30 08:27
Airport Sydney Kingsford Smith International Airport (YSSY)
Time Latitude Longitude Altitude Speed Heading
2026-04-30 07:20 -33.41381 149.65435 2429 ft 0 kts 354°
2026-04-30 07:30 -33.41378 149.65435 2429 ft 2 kts 358°
2026-04-30 07:30 -33.41349 149.65364 2428 ft 15 kts 276°
2026-04-30 07:31 -33.41292 149.65267 2426 ft 19 kts 356°
2026-04-30 07:31 -33.41145 149.65254 2421 ft 24 kts 357°
2026-04-30 07:31 -33.40961 149.65240 2415 ft 29 kts 356°
2026-04-30 07:31 -33.40759 149.65223 2409 ft 23 kts 355°
2026-04-30 07:32 -33.40676 149.65225 2409 ft 7 kts 69°
2026-04-30 07:32 -33.40675 149.65253 2409 ft 17 kts 89°
2026-04-30 07:32 -33.40678 149.65655 2415 ft 76 kts 91°
2026-04-30 07:32 -33.40692 149.66418 2574 ft 100 kts 91°
2026-04-30 07:33 -33.40716 149.67260 2986 ft 102 kts 90°
2026-04-30 07:33 -33.40747 149.68074 3525 ft 97 kts 91°
2026-04-30 07:33 -33.40897 149.68871 3883 ft 103 kts 112°
2026-04-30 07:33 -33.41364 149.69559 4198 ft 113 kts 135°
2026-04-30 07:34 -33.42108 149.69955 4464 ft 123 kts 156°
2026-04-30 07:34 -33.42971 149.69990 4687 ft 135 kts 192°
2026-04-30 07:34 -33.43800 149.69559 5197 ft 122 kts 205°
2026-04-30 07:34 -33.44544 149.68994 5469 ft 128 kts 208°
2026-04-30 07:35 -33.45297 149.68417 5755 ft 130 kts 205°
2026-04-30 07:35 -33.46106 149.68362 6113 ft 112 kts 152°
2026-04-30 07:35 -33.46807 149.68717 6473 ft 108 kts 154°
2026-04-30 07:35 -33.47484 149.69065 6795 ft 104 kts 150°
2026-04-30 07:36 -33.48154 149.69439 6978 ft 115 kts 150°
2026-04-30 07:36 -33.48950 149.69892 6999 ft 137 kts 151°
2026-04-30 07:36 -33.49859 149.70412 6996 ft 152 kts 150°
2026-04-30 07:36 -33.50838 149.70978 6992 ft 160 kts 150°
2026-04-30 07:37 -33.51855 149.71571 6993 ft 164 kts 151°
2026-04-30 07:37 -33.52892 149.72177 6993 ft 166 kts 151°
2026-04-30 07:37 -33.53928 149.72782 6994 ft 166 kts 152°
2026-04-30 07:37 -33.54965 149.73387 6997 ft 166 kts 151°
2026-04-30 07:38 -33.55998 149.73991 6993 ft 165 kts 151°
2026-04-30 07:38 -33.57023 149.74591 6998 ft 164 kts 151°
2026-04-30 07:38 -33.58050 149.75193 6997 ft 164 kts 151°
2026-04-30 07:38 -33.59078 149.75795 6999 ft 165 kts 150°
2026-04-30 07:39 -33.60111 149.76400 7002 ft 166 kts 150°
2026-04-30 07:39 -33.61152 149.77008 6999 ft 167 kts 150°
2026-04-30 07:39 -33.62200 149.77624 6999 ft 169 kts 150°
2026-04-30 07:39 -33.63255 149.78241 7002 ft 169 kts 151°
2026-04-30 07:40 -33.64311 149.78861 7002 ft 169 kts 150°
2026-04-30 07:40 -33.65369 149.79481 7000 ft 170 kts 150°
2026-04-30 07:40 -33.66426 149.80102 6997 ft 169 kts 150°
2026-04-30 07:40 -33.67474 149.80720 7005 ft 168 kts 151°
2026-04-30 07:41 -33.68523 149.81331 7005 ft 167 kts 150°
2026-04-30 07:41 -33.69558 149.81939 7003 ft 168 kts 150°
2026-04-30 07:41 -33.70606 149.82554 7009 ft 168 kts 152°
2026-04-30 07:41 -33.71661 149.83174 7007 ft 170 kts 151°
2026-04-30 07:42 -33.72727 149.83800 7001 ft 170 kts 151°
2026-04-30 07:42 -33.73790 149.84425 7007 ft 171 kts 151°
2026-04-30 07:42 -33.74858 149.85052 7005 ft 170 kts 151°
2026-04-30 07:42 -33.75923 149.85679 7010 ft 171 kts 152°
2026-04-30 07:43 -33.76988 149.86306 7007 ft 170 kts 152°
2026-04-30 07:43 -33.78048 149.86930 7007 ft 169 kts 151°
2026-04-30 07:43 -33.79099 149.87551 7007 ft 169 kts 151°
2026-04-30 07:43 -33.80162 149.88173 7007 ft 171 kts 151°
2026-04-30 07:44 -33.81231 149.88802 7004 ft 171 kts 151°
2026-04-30 07:44 -33.82280 149.89421 7004 ft 169 kts 151°
2026-04-30 07:44 -33.83342 149.90048 7012 ft 171 kts 151°
2026-04-30 07:44 -33.84412 149.90679 7013 ft 172 kts 151°
2026-04-30 07:45 -33.85489 149.91314 7008 ft 172 kts 152°
2026-04-30 07:45 -33.86559 149.91943 7015 ft 171 kts 152°
2026-04-30 07:45 -33.87628 149.92572 7016 ft 171 kts 151°
2026-04-30 07:45 -33.88692 149.93201 7017 ft 170 kts 151°
2026-04-30 07:46 -33.89762 149.93832 7009 ft 172 kts 150°
2026-04-30 07:46 -33.90833 149.94466 7008 ft 171 kts 152°
2026-04-30 07:46 -33.91894 149.95102 7016 ft 171 kts 150°
2026-04-30 07:46 -33.92960 149.95739 7008 ft 171 kts 152°
2026-04-30 07:47 -33.94025 149.96375 7016 ft 171 kts 150°
2026-04-30 07:47 -33.95094 149.97015 7007 ft 173 kts 150°
2026-04-30 07:47 -33.96176 149.97661 7013 ft 174 kts 150°
2026-04-30 07:47 -33.97260 149.98311 7009 ft 173 kts 152°
2026-04-30 07:48 -33.98326 149.98951 7002 ft 169 kts 151°
2026-04-30 07:48 -33.99366 149.99577 7007 ft 166 kts 151°
2026-04-30 07:48 -34.00408 150.00199 7010 ft 169 kts 151°
2026-04-30 07:48 -34.01466 150.00828 7010 ft 170 kts 152°
2026-04-30 07:49 -34.02523 150.01465 7013 ft 169 kts 151°
2026-04-30 07:49 -34.03577 150.02098 7001 ft 168 kts 151°
2026-04-30 07:49 -34.04625 150.02727 7016 ft 169 kts 151°
2026-04-30 07:49 -34.05682 150.03359 7009 ft 171 kts 151°
2026-04-30 07:50 -34.06752 150.04001 7010 ft 174 kts 150°
2026-04-30 07:50 -34.07823 150.04645 7013 ft 174 kts 152°
2026-04-30 07:50 -34.08923 150.05302 7007 ft 174 kts 151°
2026-04-30 07:50 -34.10017 150.05960 7009 ft 177 kts 151°
2026-04-30 07:51 -34.11104 150.06615 7004 ft 176 kts 152°
2026-04-30 07:51 -34.12203 150.07277 7008 ft 173 kts 150°
2026-04-30 07:51 -34.13282 150.07925 7009 ft 174 kts 150°
2026-04-30 07:51 -34.14368 150.08575 7004 ft 175 kts 152°
2026-04-30 07:52 -34.15454 150.09229 7007 ft 175 kts 152°
2026-04-30 07:52 -34.16471 150.10011 7004 ft 173 kts 133°
2026-04-30 07:52 -34.17129 150.11197 7000 ft 169 kts 110°
2026-04-30 07:52 -34.17353 150.12574 7007 ft 168 kts 88°
2026-04-30 07:53 -34.17149 150.13951 7001 ft 167 kts 73°
2026-04-30 07:53 -34.16851 150.15306 7013 ft 167 kts 75°
2026-04-30 07:53 -34.16569 150.16639 7007 ft 165 kts 74°
2026-04-30 07:53 -34.16277 150.17980 7003 ft 165 kts 74°
2026-04-30 07:54 -34.15988 150.19322 7004 ft 166 kts 74°
2026-04-30 07:54 -34.15696 150.20672 7008 ft 166 kts 75°
2026-04-30 07:54 -34.15404 150.22018 7004 ft 165 kts 74°
2026-04-30 07:54 -34.15115 150.23356 7004 ft 165 kts 74°
2026-04-30 07:55 -34.14826 150.24697 7000 ft 165 kts 74°
2026-04-30 07:55 -34.14534 150.26039 6999 ft 165 kts 74°
2026-04-30 07:55 -34.14241 150.27382 7001 ft 165 kts 73°
2026-04-30 07:55 -34.13950 150.28722 7004 ft 165 kts 74°
2026-04-30 07:56 -34.13660 150.30064 7000 ft 165 kts 73°
2026-04-30 07:56 -34.13366 150.31410 7003 ft 166 kts 74°
2026-04-30 07:56 -34.13071 150.32762 7003 ft 167 kts 74°
2026-04-30 07:56 -34.12779 150.34121 7000 ft 167 kts 74°
2026-04-30 07:57 -34.12484 150.35470 6999 ft 166 kts 73°
2026-04-30 07:57 -34.12190 150.36812 6998 ft 165 kts 74°
2026-04-30 07:57 -34.11899 150.38151 6998 ft 165 kts 74°
2026-04-30 07:57 -34.11609 150.39487 7001 ft 164 kts 74°
2026-04-30 07:58 -34.11314 150.40819 7004 ft 165 kts 73°
2026-04-30 07:58 -34.11021 150.42168 7004 ft 166 kts 74°
2026-04-30 07:58 -34.10726 150.43527 7004 ft 168 kts 74°
2026-04-30 07:58 -34.10432 150.44882 7000 ft 167 kts 74°
2026-04-30 07:59 -34.10139 150.46220 7008 ft 164 kts 74°
2026-04-30 07:59 -34.09844 150.47555 7007 ft 165 kts 74°
2026-04-30 07:59 -34.09551 150.48892 7006 ft 165 kts 74°
2026-04-30 08:00 -34.08969 150.51560 7003 ft 165 kts 74°
2026-04-30 08:00 -34.08676 150.52898 7003 ft 165 kts 75°
2026-04-30 08:00 -34.08387 150.54241 7006 ft 165 kts 75°
2026-04-30 08:00 -34.08101 150.55582 7007 ft 166 kts 75°
2026-04-30 08:01 -34.07805 150.56948 6890 ft 171 kts 75°
2026-04-30 08:01 -34.07499 150.58355 6748 ft 175 kts 75°
2026-04-30 08:01 -34.07192 150.59787 6603 ft 177 kts 75°
2026-04-30 08:01 -34.06878 150.61231 6451 ft 178 kts 75°
2026-04-30 08:02 -34.06252 150.64128 6156 ft 179 kts 75°
2026-04-30 08:02 -34.05937 150.65577 6014 ft 178 kts 75°
2026-04-30 08:03 -34.05331 150.68368 6003 ft 168 kts 74°
2026-04-30 08:03 -34.04740 150.71074 5995 ft 166 kts 75°
2026-04-30 08:03 -34.04451 150.72411 5991 ft 165 kts 75°
2026-04-30 08:04 -34.04162 150.73742 5989 ft 164 kts 74°
2026-04-30 08:04 -34.03873 150.75069 5994 ft 163 kts 74°
2026-04-30 08:04 -34.03592 150.76358 5995 ft 163 kts 74°
2026-04-30 08:04 -34.03308 150.77659 5989 ft 163 kts 74°
2026-04-30 08:05 -34.03021 150.78977 5998 ft 162 kts 74°
2026-04-30 08:05 -34.02733 150.80298 5996 ft 163 kts 75°
2026-04-30 08:05 -34.02445 150.81613 5994 ft 162 kts 74°
2026-04-30 08:05 -34.02158 150.82931 5998 ft 162 kts 74°
2026-04-30 08:06 -34.01870 150.84244 5997 ft 162 kts 74°
2026-04-30 08:06 -34.01584 150.85556 5995 ft 162 kts 75°
2026-04-30 08:06 -34.01296 150.86870 5997 ft 162 kts 74°
2026-04-30 08:06 -34.01008 150.88185 5997 ft 162 kts 74°
2026-04-30 08:07 -34.00720 150.89503 5992 ft 162 kts 74°
2026-04-30 08:07 -34.00432 150.90816 5994 ft 162 kts 74°
2026-04-30 08:07 -34.00144 150.92130 5991 ft 162 kts 74°
2026-04-30 08:07 -33.99854 150.93449 5991 ft 163 kts 75°
2026-04-30 08:08 -33.99563 150.94773 5992 ft 163 kts 74°
2026-04-30 08:08 -33.99274 150.96095 5994 ft 163 kts 74°
2026-04-30 08:08 -33.98982 150.97420 5992 ft 163 kts 75°
2026-04-30 08:08 -33.98691 150.98742 5993 ft 163 kts 75°
2026-04-30 08:09 -33.98400 151.00066 5990 ft 164 kts 75°
2026-04-30 08:09 -33.98108 151.01391 5993 ft 164 kts 74°
2026-04-30 08:09 -33.97816 151.02717 5989 ft 164 kts 74°
2026-04-30 08:09 -33.97524 151.04040 5986 ft 163 kts 74°
2026-04-30 08:10 -33.97234 151.05359 5989 ft 163 kts 75°
2026-04-30 08:10 -33.96943 151.06675 5988 ft 163 kts 75°
2026-04-30 08:10 -33.96652 151.07996 5989 ft 163 kts 75°
2026-04-30 08:10 -33.96440 151.09333 5987 ft 164 kts 92°
2026-04-30 08:11 -33.96676 151.10674 5989 ft 165 kts 103°
2026-04-30 08:11 -33.96957 151.12013 5989 ft 165 kts 102°
2026-04-30 08:11 -33.97238 151.13351 5990 ft 165 kts 103°
2026-04-30 08:11 -33.97519 151.14691 5993 ft 166 kts 103°
2026-04-30 08:12 -33.97803 151.16036 5991 ft 165 kts 102°
2026-04-30 08:12 -33.98089 151.17373 5993 ft 165 kts 103°
2026-04-30 08:12 -33.98372 151.18711 5992 ft 165 kts 102°
2026-04-30 08:12 -33.98657 151.20045 5990 ft 164 kts 103°
2026-04-30 08:13 -33.98942 151.21377 5990 ft 164 kts 103°
2026-04-30 08:13 -33.99222 151.22706 5991 ft 163 kts 102°
2026-04-30 08:13 -33.99505 151.24033 6014 ft 163 kts 102°
2026-04-30 08:13 -33.99785 151.25358 6019 ft 163 kts 103°
2026-04-30 08:14 -34.00100 151.26672 6014 ft 164 kts 114°
2026-04-30 08:14 -34.00958 151.27553 6014 ft 169 kts 159°
2026-04-30 08:14 -34.02121 151.27814 6017 ft 170 kts 168°
2026-04-30 08:14 -34.03275 151.28139 6018 ft 170 kts 162°
2026-04-30 08:15 -34.04425 151.28496 6016 ft 171 kts 162°
2026-04-30 08:15 -34.05600 151.28861 5831 ft 180 kts 163°
2026-04-30 08:15 -34.06788 151.29227 5503 ft 174 kts 163°
2026-04-30 08:15 -34.07962 151.29584 5079 ft 176 kts 163°
2026-04-30 08:16 -34.09161 151.29943 4575 ft 179 kts 163°
2026-04-30 08:16 -34.10376 151.30307 4081 ft 180 kts 163°
2026-04-30 08:16 -34.11592 151.30670 3592 ft 180 kts 163°
2026-04-30 08:16 -34.12807 151.31033 3092 ft 180 kts 163°
2026-04-30 08:17 -34.13614 151.31271 2765 ft 180 kts 163°
2026-04-30 08:17 -34.15250 151.31751 2099 ft 182 kts 163°
2026-04-30 08:17 -34.16418 151.32087 2007 ft 163 kts 163°
2026-04-30 08:17 -34.17504 151.32404 1997 ft 159 kts 162°
2026-04-30 08:18 -34.18210 151.32600 2001 ft 155 kts 163°
2026-04-30 08:18 -34.19612 151.32814 2000 ft 158 kts 191°
2026-04-30 08:18 -34.20464 151.32002 1997 ft 162 kts 244°
2026-04-30 08:18 -34.20536 151.30721 1999 ft 151 kts 296°
2026-04-30 08:19 -34.19976 151.29741 1999 ft 138 kts 313°
2026-04-30 08:19 -34.19394 151.28844 2001 ft 134 kts 314°
2026-04-30 08:19 -34.19019 151.28271 1996 ft 134 kts 314°
2026-04-30 08:19 -34.18448 151.27387 2001 ft 133 kts 313°
2026-04-30 08:20 -34.17875 151.26528 2006 ft 133 kts 314°
2026-04-30 08:20 -34.17293 151.25657 2003 ft 133 kts 314°
2026-04-30 08:20 -34.16705 151.24797 1999 ft 131 kts 322°
2026-04-30 08:20 -34.15909 151.24434 2008 ft 122 kts 353°
2026-04-30 08:21 -34.15087 151.24178 2004 ft 121 kts 351°
2026-04-30 08:21 -34.14253 151.23945 2011 ft 122 kts 352°
2026-04-30 08:21 -34.13427 151.23727 2010 ft 120 kts 352°
2026-04-30 08:21 -34.12605 151.23507 2008 ft 122 kts 353°
2026-04-30 08:22 -34.11792 151.23294 2013 ft 121 kts 353°
2026-04-30 08:22 -34.10969 151.23074 2009 ft 122 kts 352°
2026-04-30 08:22 -34.10141 151.22852 2014 ft 122 kts 352°
2026-04-30 08:22 -34.09313 151.22636 2013 ft 122 kts 353°
2026-04-30 08:23 -34.08485 151.22414 2016 ft 121 kts 352°
2026-04-30 08:23 -34.07659 151.22196 2015 ft 122 kts 353°
2026-04-30 08:23 -34.06825 151.21975 1977 ft 125 kts 353°
2026-04-30 08:23 -34.05948 151.21744 1818 ft 132 kts 352°
2026-04-30 08:24 -34.05064 151.21508 1646 ft 129 kts 353°
2026-04-30 08:24 -34.04194 151.21276 1471 ft 127 kts 352°
2026-04-30 08:24 -34.03328 151.21046 1303 ft 127 kts 352°
2026-04-30 08:24 -34.02454 151.20816 1130 ft 129 kts 353°
2026-04-30 08:25 -34.01591 151.20591 960 ft 124 kts 352°
2026-04-30 08:25 -34.00769 151.20371 796 ft 120 kts 354°
2026-04-30 08:25 -33.99977 151.20159 641 ft 114 kts 353°
2026-04-30 08:25 -33.99214 151.19958 487 ft 111 kts 353°
2026-04-30 08:26 -33.98456 151.19755 340 ft 111 kts 351°
2026-04-30 08:26 -33.97763 151.19569 200 ft 90 kts 352°
2026-04-30 08:26 -33.97207 151.19422 98 ft 76 kts 351°
2026-04-30 08:26 -33.96727 151.19289 14 ft 62 kts 359°
2026-04-30 08:27 -33.96424 151.19224 17 ft 38 kts 344°
2026-04-30 08:27 -33.96182 151.19150 22 ft 32 kts 346°
2026-04-30 08:27 -33.95957 151.19080 23 ft 28 kts 337°
2026-04-30 08:27 -33.95801 151.18956 21 ft 28 kts 322°
2026-04-30 08:28 -33.95666 151.18829 18 ft 23 kts 330°
2026-04-30 08:28 -33.95524 151.18785 16 ft 20 kts 332°
2026-04-30 08:28 -33.95386 151.18740 17 ft 22 kts 348°
2026-04-30 08:28 -33.95238 151.18673 19 ft 25 kts 325°
2026-04-30 08:29 -33.95129 151.18546 18 ft 16 kts 284°
2026-04-30 08:29 -33.95129 151.18385 18 ft 23 kts 255°
2026-04-30 08:29 -33.95164 151.18181 19 ft 14 kts 257°
2026-04-30 08:29 -33.95176 151.18123 20 ft 0 kts 261°
2026-04-30 08:30 -33.95176 151.18121 20 ft 1 kts 258°
2026-04-30 08:30 -33.95176 151.18120 20 ft 0 kts 257°
2026-04-30 08:32 -33.95176 151.18089 20 ft 2 kts 270°
2026-04-30 08:32 -33.95195 151.18007 19 ft 14 kts 267°
2026-04-30 08:32 -33.95121 151.17949 20 ft 16 kts 345°
2026-04-30 08:32 -33.94972 151.17914 17 ft 26 kts 340°
2026-04-30 08:33 -33.94780 151.17855 16 ft 30 kts 355°
2026-04-30 08:33 -33.94599 151.17815 19 ft 19 kts 343°
2026-04-30 08:33 -33.94547 151.17799 17 ft 0 kts 338°
2026-04-30 08:34 -33.94519 151.17792 17 ft 19 kts 348°
2026-04-30 08:34 -33.94393 151.17755 18 ft 18 kts 345°
2026-04-30 08:34 -33.94257 151.17712 16 ft 23 kts 346°
2026-04-30 08:34 -33.94107 151.17666 16 ft 16 kts 346°
2026-04-30 08:35 -33.94038 151.17781 17 ft 26 kts 72°
2026-04-30 08:35 -33.93974 151.18057 19 ft 40 kts 74°
2026-04-30 08:35 -33.93887 151.18421 24 ft 49 kts 74°
2026-04-30 08:35 -33.93823 151.18696 20 ft 27 kts 75°
2026-04-30 08:36 -33.93736 151.18833 20 ft 19 kts 358°
2026-04-30 08:36 -33.93629 151.18795 25 ft 14 kts 317°
2026-04-30 08:36 -33.93629 151.18686 25 ft 15 kts 254°
2026-04-30 08:36 -33.93602 151.18587 25 ft 11 kts 275°
2026-04-30 08:37 -33.93538 151.18538 25 ft 12 kts 344°
2026-04-30 08:37 -33.93509 151.18530 26 ft 0 kts 347°